Weather in Sosnovka

Russia / Tambov Oblast     53°13′58″N   41°22′05″E
temp.,
°C
wind,
m/s
gust,
m/s
humid.,
%
clouds,
%
prec.,
mm/h
press.,
hPa
HPBL,
m
27 february, sat
sat2700:00+2w7159198 0.0 1005490
03:00+1w8149296 0.0 1004670
06:00+1wnw81496100 0.1 1002742
09:00+1w81594100 0.1 1002915
12:00−2nw91691100 0.9 1003904
15:00−8nnw7128995 0.9 1006751
18:00−8nnw51091100 0.1 1009553
21:00−9nnw4994100 0.1 1012326
28 february, sun
sun2800:00−12nw489680 0.0 1013166
03:00−13nw369550 0.0 1014111
06:00−11nw359575 0.1 1014183
09:00−10wnw249579 0.1 1015198
12:00−7nw359189 0.1 1015429
15:00−6nnw359194 0.1 1015446
18:00−7nnw259499 0.1 1016149
21:00−8n2394100 0.1 101894
1 march, mon
mon100:00−10nne2296100 0.0 102021
03:00−12n129591 0.0 102221
06:00−13n119694 0.0 102321
09:00−11nnw129697 0.1 102657
12:00−8wnw229079 0.0 1026258
15:00−7wsw349377 0.0 1025240
18:00−8wsw349515 0.0 102480
21:00−5wsw5119554 0.0 1022288
2 march, tue
tue200:00−4wsw61295100 0.1 1019381
03:00−2wsw81493100 0.3 1016482
06:00−1wsw81496100 1.1 1012579
09:00+1w81498100 1.9 1009697
12:000nw81397100 0.5 1008864
15:00+1nw7138798 0.8 10081000
18:00−2nw7148655 0.0 1009538
21:00−2nw5129353 0.1 1011439
3 march, wed
wed300:00−3nw6139299 0.1 1010519
03:00−4nw6129392 0.1 1011514
06:00−4nw6129398 0.0 1011615
09:00−4nw7139299 0.1 1013963
12:00−3nnw81285100 0.1 10151066
15:00−3nw7128394 0.2 1016988
18:00−5nw5118926 0.0 1017270
21:00−7nw499313 0.0 1019144